Time,TemperatureF,DewpointF,PressureIn,WindDirection,WindDirectionDegrees,WindSpeedMPH,WindSpeedGustMPH,Humidity,HourlyPrecipIn,Conditions,Clouds,dailyrainin,SoftwareType,DateUTC
2013-12-12 00:12:00,31.8,25.4,30.32,WSW,244,0.0,0.0,77,0.00,,CLR,0.00,VWS V14.01,2013-12-12 05:12:00,
2013-12-12 00:27:00,31.9,24.9,30.31,WSW,244,0.0,2.6,75,0.00,,CLR,0.00,VWS V14.01,2013-12-12 05:27:00,
2013-12-12 00:42:00,32.4,24.7,30.31,WSW,244,2.6,2.6,73,0.00,,CLR,0.00,VWS V14.01,2013-12-12 05:42:00,
2013-12-12 00:57:00,33.0,24.6,30.31,WSW,244,0.0,1.3,71,0.00,,CLR,0.00,VWS V14.01,2013-12-12 05:57:00,
2013-12-12 01:12:00,32.5,25.1,30.31,WSW,244,0.0,0.0,74,0.00,,CLR,0.00,VWS V14.01,2013-12-12 06:12:00,
2013-12-12 01:27:00,32.9,24.5,30.31,WSW,244,2.6,2.6,71,0.00,,CLR,0.00,VWS V14.01,2013-12-12 06:27:00,
2013-12-12 01:42:00,34.0,24.9,30.31,WSW,244,1.3,2.6,69,0.00,,CLR,0.00,VWS V14.01,2013-12-12 06:42:00,
2013-12-12 01:57:00,34.6,25.1,30.31,WSW,244,0.0,2.6,68,0.00,,CLR,0.00,VWS V14.01,2013-12-12 06:57:00,
2013-12-12 02:12:00,34.9,25.8,30.31,WSW,244,0.0,1.3,69,0.00,,CLR,0.00,VWS V14.01,2013-12-12 07:12:00,
2013-12-12 02:27:00,35.0,25.5,30.32,WSW,244,0.0,1.3,68,0.00,,CLR,0.00,VWS V14.01,2013-12-12 07:27:00,
2013-12-12 02:42:00,34.9,25.8,30.32,ENE,63,1.3,2.6,69,0.00,,CLR,0.00,VWS V14.01,2013-12-12 07:42:00,
2013-12-12 02:57:00,35.0,25.5,30.32,ENE,63,0.0,2.6,68,0.00,,CLR,0.00,VWS V14.01,2013-12-12 07:57:00,
2013-12-12 03:12:00,35.2,25.4,30.32,ENE,63,1.3,3.9,67,0.00,,CLR,0.00,VWS V14.01,2013-12-12 08:12:00,
2013-12-12 03:27:00,35.4,25.5,30.32,WNW,290,1.3,5.2,67,0.00,,CLR,0.00,VWS V14.01,2013-12-12 08:27:00,
2013-12-12 03:42:00,34.9,25.1,30.32,West,262,2.6,2.6,67,0.00,,CLR,0.00,VWS V14.01,2013-12-12 08:42:00,
2013-12-12 03:57:00,34.9,25.4,30.32,WNW,293,0.0,1.3,68,0.00,,CLR,0.00,VWS V14.01,2013-12-12 08:57:00,
2013-12-12 04:12:00,34.7,25.2,30.32,NE,54,0.0,3.9,68,0.00,,CLR,0.00,VWS V14.01,2013-12-12 09:12:00,
2013-12-12 04:27:00,34.4,25.3,30.32,ESE,106,2.6,3.9,69,0.00,,CLR,0.00,VWS V14.01,2013-12-12 09:27:00,
2013-12-12 04:42:00,34.0,24.9,30.32,NE,39,1.3,5.2,69,0.00,,CLR,0.00,VWS V14.01,2013-12-12 09:42:00,
2013-12-12 04:57:00,33.9,24.8,30.32,NE,35,0.0,1.3,69,0.00,,CLR,0.00,VWS V14.01,2013-12-12 09:57:00,
2013-12-12 05:12:00,33.7,25.0,30.31,West,271,0.0,1.3,70,0.00,,CLR,0.00,VWS V14.01,2013-12-12 10:12:00,
2013-12-12 05:27:00,32.8,24.5,30.31,East,83,1.3,1.3,71,0.00,,CLR,0.00,VWS V14.01,2013-12-12 10:27:00,
2013-12-12 05:42:00,32.8,24.1,30.32,East,83,0.0,2.6,70,0.00,,CLR,0.00,VWS V14.01,2013-12-12 10:42:00,
2013-12-12 05:57:00,32.8,24.5,30.32,North,5,0.0,0.0,71,0.00,,CLR,0.00,VWS V14.01,2013-12-12 10:57:00,
2013-12-12 06:12:00,32.3,24.0,30.34,North,355,0.0,1.3,71,0.00,,CLR,0.00,VWS V14.01,2013-12-12 11:12:00,
2013-12-12 06:27:00,31.9,23.9,30.34,North,355,0.0,1.3,72,0.00,,CLR,0.00,VWS V14.01,2013-12-12 11:27:00,
2013-12-12 06:42:00,31.7,23.7,30.35,North,355,0.0,1.3,72,0.00,,CLR,0.00,VWS V14.01,2013-12-12 11:42:00,
2013-12-12 06:57:00,31.7,23.7,30.35,North,355,0.0,1.3,72,0.00,,CLR,0.00,VWS V14.01,2013-12-12 11:57:00,
2013-12-12 07:12:00,30.9,23.0,30.36,North,355,1.3,3.9,72,0.00,,CLR,0.00,VWS V14.01,2013-12-12 12:12:00,
2013-12-12 07:27:00,31.3,23.3,30.37,North,355,0.0,0.0,72,0.00,,CLR,0.00,VWS V14.01,2013-12-12 12:27:00,
2013-12-12 07:42:00,30.1,22.8,30.38,North,355,0.0,0.0,74,0.00,,CLR,0.00,VWS V14.01,2013-12-12 12:42:00,
2013-12-12 07:57:00,30.1,23.5,30.39,North,355,0.0,0.0,76,0.00,,CLR,0.00,VWS V14.01,2013-12-12 12:57:00,
2013-12-12 08:12:00,30.4,24.1,30.39,North,355,0.0,0.0,77,0.00,,CLR,0.00,VWS V14.01,2013-12-12 13:12:00,
2013-12-12 08:27:00,31.5,24.5,30.39,North,355,0.0,0.0,75,0.00,,CLR,0.00,VWS V14.01,2013-12-12 13:27:00,
2013-12-12 08:42:00,33.6,24.5,30.39,North,355,0.0,0.0,69,0.00,,CLR,0.00,VWS V14.01,2013-12-12 13:42:00,
2013-12-12 08:57:00,36.0,24.3,30.39,East,80,1.3,6.5,62,0.00,,CLR,0.00,VWS V14.01,2013-12-12 13:57:00,
2013-12-12 09:12:00,37.7,25.1,30.39,West,281,2.6,2.6,60,0.00,,CLR,0.00,VWS V14.01,2013-12-12 14:12:00,
2013-12-12 09:27:00,39.5,25.1,30.40,East,89,0.0,6.5,56,0.00,,CLR,0.00,VWS V14.01,2013-12-12 14:27:00,
2013-12-12 09:42:00,40.5,24.7,30.41,North,360,6.5,6.5,53,0.00,,CLR,0.00,VWS V14.01,2013-12-12 14:42:00,
2013-12-12 09:57:00,41.5,26.1,30.42,NE,50,0.0,2.6,54,0.00,,CLR,0.00,VWS V14.01,2013-12-12 14:57:00,
2013-12-12 10:12:00,42.4,25.6,30.42,NNW,336,2.6,5.2,51,0.00,,CLR,0.00,VWS V14.01,2013-12-12 15:12:00,
2013-12-12 10:27:00,43.1,25.7,30.42,NW,313,1.3,3.9,50,0.00,,CLR,0.00,VWS V14.01,2013-12-12 15:27:00,
2013-12-12 10:42:00,44.1,24.1,30.42,NE,55,2.6,3.9,45,0.00,,CLR,0.00,VWS V14.01,2013-12-12 15:42:00,
2013-12-12 10:57:00,44.5,24.0,30.42,WNW,287,3.9,6.5,44,0.00,,CLR,0.00,VWS V14.01,2013-12-12 15:57:00,
2013-12-12 11:12:00,44.9,20.2,30.42,NNW,342,6.5,7.8,37,0.00,,CLR,0.00,VWS V14.01,2013-12-12 16:12:00,
2013-12-12 11:27:00,45.6,21.5,30.41,East,101,7.8,7.8,38,0.00,,CLR,0.00,VWS V14.01,2013-12-12 16:27:00,
2013-12-12 11:42:00,46.4,23.4,30.40,ENE,68,5.2,9.1,40,0.00,,CLR,0.00,VWS V14.01,2013-12-12 16:42:00,
2013-12-12 11:57:00,46.5,22.3,30.40,NE,48,6.5,6.5,38,0.00,,CLR,0.00,VWS V14.01,2013-12-12 16:57:00,
2013-12-12 12:12:00,47.6,22.6,30.39,ENE,69,0.0,3.9,37,0.00,,CLR,0.00,VWS V14.01,2013-12-12 17:12:00,
2013-12-12 12:27:00,48.3,21.9,30.39,ENE,69,1.3,1.3,35,0.00,,CLR,0.00,VWS V14.01,2013-12-12 17:27:00,
2013-12-12 12:42:00,48.9,22.5,30.39,East,90,1.3,5.2,35,0.00,,CLR,0.00,VWS V14.01,2013-12-12 17:42:00,
2013-12-12 12:57:00,48.8,22.4,30.38,ENE,60,1.3,3.9,35,0.00,,CLR,0.00,VWS V14.01,2013-12-12 17:57:00,
2013-12-12 13:12:00,50.2,22.9,30.37,WNW,300,1.3,5.2,34,0.00,,CLR,0.00,VWS V14.01,2013-12-12 18:12:00,
2013-12-12 13:27:00,50.2,24.3,30.37,North,9,0.0,2.6,36,0.00,,CLR,0.00,VWS V14.01,2013-12-12 18:27:00,
2013-12-12 13:42:00,51.0,22.2,30.36,ENE,67,2.6,3.9,32,0.00,,CLR,0.00,VWS V14.01,2013-12-12 18:42:00,
2013-12-12 13:57:00,50.2,20.8,30.36,East,92,1.3,3.9,31,0.00,,CLR,0.00,VWS V14.01,2013-12-12 18:57:00,
2013-12-12 14:12:00,50.1,21.4,30.36,ESE,108,0.0,1.3,32,0.00,,CLR,0.00,VWS V14.01,2013-12-12 19:12:00,
2013-12-12 14:27:00,50.1,19.9,30.35,SSW,200,3.9,5.2,30,0.00,,CLR,0.00,VWS V14.01,2013-12-12 19:27:00,
2013-12-12 14:42:00,50.7,21.2,30.35,ENE,59,0.0,2.6,31,0.00,,CLR,0.00,VWS V14.01,2013-12-12 19:42:00,
2013-12-12 14:57:00,50.7,19.6,30.35,WSW,244,6.5,6.5,29,0.00,,CLR,0.00,VWS V14.01,2013-12-12 19:57:00,
2013-12-12 15:12:00,50.7,20.4,30.35,SW,218,0.0,2.6,30,0.00,,CLR,0.00,VWS V14.01,2013-12-12 20:12:00,
2013-12-12 15:27:00,50.8,20.5,30.34,SSW,198,1.3,3.9,30,0.00,,CLR,0.00,VWS V14.01,2013-12-12 20:27:00,
2013-12-12 15:42:00,51.6,24.2,30.34,SSW,197,0.0,1.3,34,0.00,,CLR,0.00,VWS V14.01,2013-12-12 20:42:00,
2013-12-12 15:57:00,52.7,24.4,30.35,NE,46,0.0,1.3,33,0.00,,CLR,0.00,VWS V14.01,2013-12-12 20:57:00,
2013-12-12 16:12:00,52.2,25.4,30.35,ENE,76,0.0,1.3,35,0.00,,CLR,0.00,VWS V14.01,2013-12-12 21:12:00,
2013-12-12 16:27:00,51.9,27.1,30.35,ENE,63,0.0,1.3,38,0.00,,CLR,0.00,VWS V14.01,2013-12-12 21:27:00,
2013-12-12 16:42:00,50.8,28.5,30.35,ENE,63,0.0,1.3,42,0.00,,CLR,0.00,VWS V14.01,2013-12-12 21:42:00,
2013-12-12 16:57:00,48.5,26.5,30.35,ENE,63,0.0,2.6,42,0.00,,CLR,0.00,VWS V14.01,2013-12-12 21:57:00,
2013-12-12 17:12:00,46.1,26.5,30.35,ENE,63,0.0,1.3,46,0.00,,CLR,0.00,VWS V14.01,2013-12-12 22:12:00,
2013-12-12 17:27:00,43.9,26.5,30.35,ENE,63,0.0,1.3,50,0.00,,CLR,0.00,VWS V14.01,2013-12-12 22:27:00,
2013-12-12 17:42:00,42.5,25.2,30.35,ENE,63,0.0,0.0,50,0.00,,CLR,0.00,VWS V14.01,2013-12-12 22:42:00,
2013-12-12 17:57:00,41.2,24.0,30.36,ENE,63,1.3,1.3,50,0.00,,CLR,0.00,VWS V14.01,2013-12-12 22:57:00,
2013-12-12 18:12:00,40.0,24.3,30.37,ENE,63,0.0,1.3,53,0.00,,CLR,0.00,VWS V14.01,2013-12-12 23:12:00,
2013-12-12 18:27:00,39.2,20.7,30.37,ENE,63,0.0,1.3,47,0.00,,CLR,0.00,VWS V14.01,2013-12-12 23:27:00,
2013-12-12 18:42:00,38.0,20.5,30.37,ENE,63,0.0,0.0,49,0.00,,CLR,0.00,VWS V14.01,2013-12-12 23:42:00,
2013-12-12 18:57:00,36.9,22.3,30.38,ENE,63,0.0,1.3,55,0.00,,CLR,0.00,VWS V14.01,2013-12-12 23:57:00,
2013-12-12 19:12:00,36.2,18.9,30.38,ENE,63,0.0,1.3,49,0.00,,CLR,0.00,VWS V14.01,2013-12-13 00:12:00,
2013-12-12 19:27:00,35.9,18.1,30.39,ENE,63,0.0,1.3,48,0.00,,CLR,0.00,VWS V14.01,2013-12-13 00:27:00,
2013-12-12 19:42:00,35.2,17.0,30.39,ENE,63,0.0,1.3,47,0.00,,CLR,0.00,VWS V14.01,2013-12-13 00:42:00,
2013-12-12 19:57:00,34.6,17.9,30.39,ENE,63,0.0,1.3,50,0.00,,CLR,0.00,VWS V14.01,2013-12-13 00:57:00,
2013-12-12 20:12:00,34.0,16.4,30.39,ENE,63,0.0,0.0,48,0.00,,CLR,0.00,VWS V14.01,2013-12-13 01:12:00,
2013-12-12 20:27:00,33.6,16.5,30.39,ENE,63,1.3,1.3,49,0.00,,CLR,0.00,VWS V14.01,2013-12-13 01:27:00,
2013-12-12 20:42:00,33.5,16.4,30.39,ENE,63,1.3,1.3,49,0.00,,CLR,0.00,VWS V14.01,2013-12-13 01:42:00,
2013-12-12 20:57:00,33.5,16.4,30.39,ENE,63,1.3,1.3,49,0.00,,CLR,0.00,VWS V14.01,2013-12-13 01:57:00,
2013-12-12 21:12:00,33.4,15.4,30.39,ENE,63,0.0,1.3,47,0.00,,CLR,0.00,VWS V14.01,2013-12-13 02:12:00,
2013-12-12 21:27:00,33.7,14.6,30.39,ENE,63,1.3,1.3,45,0.00,,CLR,0.00,VWS V14.01,2013-12-13 02:27:00,
2013-12-12 21:42:00,33.4,18.6,30.38,ENE,63,1.3,1.3,54,0.00,,CLR,0.00,VWS V14.01,2013-12-13 02:42:00,
2013-12-12 21:57:00,32.5,19.4,30.38,ENE,63,0.0,1.3,58,0.00,,CLR,0.00,VWS V14.01,2013-12-13 02:57:00,
2013-12-12 22:12:00,31.5,19.2,30.37,ENE,63,0.0,0.0,60,0.00,,CLR,0.00,VWS V14.01,2013-12-13 03:12:00,
2013-12-12 22:27:00,30.1,21.2,30.37,ENE,63,0.0,0.0,69,0.00,,CLR,0.00,VWS V14.01,2013-12-13 03:27:00,
2013-12-12 22:42:00,29.7,18.7,30.37,ENE,63,0.0,0.0,63,0.00,,CLR,0.00,VWS V14.01,2013-12-13 03:42:00,
2013-12-12 22:57:00,29.6,18.9,30.36,ENE,63,0.0,1.3,64,0.00,,CLR,0.00,VWS V14.01,2013-12-13 03:57:00,
2013-12-12 23:12:00,29.1,20.2,30.36,ENE,63,0.0,0.0,69,0.00,,CLR,0.00,VWS V14.01,2013-12-13 04:12:00,
2013-12-12 23:27:00,28.9,20.0,30.37,ENE,63,0.0,1.3,69,0.00,,CLR,0.00,VWS V14.01,2013-12-13 04:27:00,
2013-12-12 23:42:00,28.7,19.5,30.37,ENE,63,0.0,0.0,68,0.00,,CLR,0.00,VWS V14.01,2013-12-13 04:42:00,
2013-12-12 23:59:00,28.7,19.5,30.37,ENE,63,0.0,0.0,68,0.00,,CLR,0.00,VWS V14.01,2013-12-13 04:59:00,